GW2214 Weather Reports


time (UTC)temp
C
wind
direction
speed
KPH
gust
KPH
rain 1hr
cm
rain 24hr
cm
rain mn
cm
humidity
%
barometer
mb
20260510180034 23 332 0.0 0.0 0.00 0.00 0.00 57 1000.6
20260510174533 23 245 0.0 0.0 0.00 0.00 0.00 55 1000.6
20260510173032 23 286 0.0 0.0 0.00 0.00 0.00 54 1000.6
20260510171534 23 240 0.0 0.0 0.00 0.00 0.00 56 1000.7
20260510170028 23 273 0.0 0.0 0.00 0.00 0.00 58 1000.6
20260510164524 22 255 0.0 0.0 0.00 0.00 0.00 61 1000.6
20260510163022 22 235 0.0 0.0 0.00 0.00 0.00 64 1000.7
20260510161518 22 294 0.0 0.0 0.00 0.00 0.00 63 1000.8
20260510160014 21 240 0.0 0.0 0.00 0.00 0.00 60 1000.8
20260510154513 21 280 0.0 0.0 0.00 0.00 0.00 63 1000.9
20260510153011 21 314 0.0 0.0 0.00 0.00 0.00 66 1000.9
20260510151508 20 305 0.0 0.0 0.00 0.00 0.00 66 1000.9
20260510150005 20 198 0.0 0.0 0.00 0.00 0.00 67 1000.7
20260510144502 20 291 0.0 0.0 0.00 0.00 0.00 72 1000.8
20260510143058 18 245 0.0 0.0 0.00 0.00 0.00 76 1000.8
20260510141557 17 278 0.0 0.0 0.00 0.00 0.00 80 1000.9
20260510140050 17 263 0.0 0.0 0.00 0.00 0.00 81 1000.9
20260510134549 16 204 0.0 0.0 0.00 0.00 0.00 86 1000.8
20260510133042 15 204 0.0 0.0 0.00 0.00 0.00 90 1000.7
20260510131538 14 216 0.0 0.0 0.00 0.00 0.00 96 1000.7
20260510130034 13 216 0.0 0.0 0.00 0.00 0.00 97 1000.8
20260510124535 12 163 0.0 0.0 0.00 0.00 0.00 97 1000.8
20260510123028 12 106 0.0 0.0 0.00 0.00 0.00 97 1000.7
20260510121526 11 51 0.0 0.0 0.00 0.00 0.00 97 1000.4
20260510120024 11 44 0.0 4.8 0.00 0.00 0.00 97 1000.2
20260510114524 11 21 0.0 4.8 0.00 0.00 0.00 96 1000.1
20260510113034 11 39 0.0 4.8 0.00 0.00 0.00 96 999.7
20260510111524 10 28 4.8 12.9 0.00 0.00 0.00 96 999.8
20260510110033 10 357 0.0 0.0 0.00 0.00 0.00 96 999.9
20260510104518 10 13 0.0 0.0 0.00 0.00 0.00 96 999.5
20260510103020 10 351 0.0 8.0 0.00 0.00 0.00 96 999.1
20260510101518 10 18 0.0 6.4 0.00 0.00 0.00 96 999.0
20260510100016 10 3 4.8 8.0 0.00 0.00 0.00 96 999.0
20260510094518 9 14 4.8 12.9 0.00 0.00 0.00 95 998.8
20260510093014 9 20 4.8 12.9 0.00 0.00 0.00 95 998.7
20260510091511 9 7 0.0 11.3 0.00 0.00 0.00 95 998.7
20260510090013 9 5 1.6 6.4 0.00 0.00 0.00 95 999.0
20260510084507 9 338 0.0 1.6 0.00 0.00 0.00 94 998.8
20260510083002 10 328 0.0 6.4 0.00 0.00 0.00 94 999.0
20260510081502 10 37 1.6 8.0 0.00 0.00 0.00 94 998.3
20260510080103 10 41 1.6 6.4 0.00 0.00 0.00 94 998.3
20260510074604 10 41 1.6 4.8 0.00 0.00 0.00 94 998.3
20260510073057 10 41 3.2 6.4 0.00 0.00 0.00 93 998.1
20260510071555 11 74 1.6 4.8 0.00 0.00 0.00 93 997.9
20260510070054 11 240 3.2 4.8 0.00 0.00 0.00 93 997.7
20260510064603 11 112 3.2 8.0 0.00 0.00 0.00 93 997.5
20260510063050 11 105 3.2 6.4 0.00 0.00 0.00 93 997.7
20260510061550 11 106 1.6 4.8 0.00 0.00 0.00 93 997.8
20260510060027 11 240 3.2 6.4 0.00 0.00 0.00 93 997.7
20260510054525 11 98 1.6 4.8 0.00 0.00 0.00 92 998.0
20260510053023 11 98 3.2 8.0 0.00 0.00 0.00 92 998.0
20260510051522 11 240 1.6 6.4 0.00 0.00 0.00 92 998.2
20260510050025 11 240 1.6 6.4 0.00 0.00 0.00 92 998.2
20260510044524 11 77 1.6 4.8 0.00 0.00 0.00 92 998.3
20260510043021 11 79 0.0 4.8 0.00 0.00 0.00 91 998.4
20260510041519 12 80 1.6 4.8 0.00 0.00 0.00 92 998.5
20260510040013 12 79 0.0 3.2 0.00 0.00 0.00 91 998.5
20260510034512 12 240 0.0 3.2 0.00 0.00 0.00 91 998.4
20260510033012 12 80 0.0 1.6 0.00 0.00 0.00 91 998.2
20260510031514 12 80 0.0 4.8 0.00 0.00 0.00 91 998.3
20260510030011 12 80 1.6 4.8 0.00 0.00 0.00 91 998.1
20260510024511 12 79 0.0 4.8 0.00 0.00 0.00 90 997.9
20260510023009 12 77 1.6 4.8 0.00 0.00 0.00 90 998.1
20260510021513 12 77 1.6 6.4 0.00 0.00 0.00 90 998.0
20260510020008 12 77 1.6 6.4 0.00 0.00 0.00 90 998.0
20260510014507 12 79 0.0 6.4 0.00 0.00 0.00 89 997.8
20260510013007 12 81 0.0 6.4 0.00 0.00 0.00 89 997.9
20260510011509 13 240 3.2 11.3 0.00 0.00 0.00 88 997.7
20260510010005 13 240 1.6 12.9 0.00 0.00 0.00 88 997.7
20260510004505 13 120 1.6 11.3 0.00 0.00 0.00 87 997.6
20260510003018 13 240 4.8 8.0 0.00 0.00 0.00 86 997.5
20260510001504 13 240 0.0 3.2 0.00 0.00 0.00 84 997.5
20260510000004 13 92 1.6 4.8 0.00 0.00 0.00 85 997.5
20260509234505 14 93 0.0 1.6 0.00 0.00 0.00 84 997.6
20260509233003 14 92 0.0 3.2 0.00 0.00 0.00 83 997.6
20260509231504 14 240 0.0 4.8 0.00 0.00 0.00 83 997.5
20260509230002 14 80 1.6 9.7 0.00 0.00 0.00 83 997.3
20260509224501 14 66 1.6 6.4 0.00 0.00 0.00 85 997.4
20260509223002 13 72 1.6 9.7 0.00 0.00 0.00 86 997.4
20260509221600 13 79 3.2 8.0 0.00 0.00 0.00 87 997.4
20260509220109 13 78 1.6 14.5 0.00 0.00 0.00 88 997.5
20260509214602 13 61 1.6 6.4 0.00 0.00 0.00 88 997.6
20260509213059 13 54 0.0 11.3 0.00 0.00 0.00 89 997.7
20260509211559 13 24 6.4 12.9 0.00 0.00 0.00 88 997.6
20260509210058 13 14 4.8 11.3 0.00 0.00 0.00 85 997.4
20260509204604 14 3 4.8 9.7 0.00 0.00 0.00 83 997.6
20260509203138 14 6 4.8 12.9 0.00 0.00 0.00 83 997.7
20260509201614 13 338 3.2 19.3 0.00 0.00 0.00 84 997.6
20260509194552 13 353 0.0 0.0 0.00 0.00 0.00 88 997.6
20260509193059 13 12 0.0 0.0 0.00 0.00 0.00 88 997.9
20260509191558 13 343 0.0 0.0 0.00 0.00 0.00 87 998.1
20260509190046 13 22 0.0 0.0 0.00 0.00 0.00 85 998.4
20260509184545 13 340 0.0 0.0 0.00 0.00 0.00 84 998.6
20260509183048 13 332 0.0 0.0 0.00 0.00 0.00 82 998.5
20260509181543 13 322 0.0 0.0 0.00 0.00 0.00 80 998.6